Simultaneous Nadir Overpasses (SNOs) Predictions

Prediction of SNOs between GOES-14 and AQUA Satellite Orbit:

Table of predicted SNOs for the next 14.0 days since TLE Epoch: 8/21/2021
Index Date Time (GOES-14) GOES-14 Lat,Lon AQUA Lat,Lon Distance(km) Time Diff (sec)
1 08/22/2021 20:20:22 -0.40,-104.36 0.32,-100.94 389.19 80
2 08/23/2021 08:41:36 0.41,-104.19 0.84,-106.08 215.45 80
3 08/25/2021 08:26:44 0.41,-104.18 0.21,-103.12 120.54 80
4 08/25/2021 20:48:08 -0.42,-104.34 -1.28,-108.32 453.18 80
5 08/27/2021 08:14:33 0.41,-104.18 -0.47,-100.17 456.85 80
6 08/27/2021 20:35:56 -0.41,-104.34 -0.66,-105.36 116.23 80
7 08/29/2021 20:26:24 -0.41,-104.34 -0.02,-102.40 220.50 80
8 08/30/2021 08:47:39 0.41,-104.21 1.12,-107.55 379.78 80
9 09/01/2021 08:35:27 0.41,-104.21 0.49,-104.59 43.92 80
10 09/03/2021 08:20:35 0.40,-104.20 -0.15,-101.63 291.66 80
11 09/03/2021 20:41:59 -0.40,-104.31 -0.96,-106.82 286.28 80
